GW1238 Weather Reports


Display with metric or nautical units.
time (UTC)temp
F
wind
direction
speed
MPH
gust
MPH
rain 1hr
in
rain 24hr
in
rain mn
in
humidity
%
barometer
mb
20260903184023 97 125 1.0 1.0 0.00 0.00 0.00 51 1019.3
20260903183522 101 154 0.0 0.0 0.00 0.00 0.00 50 1019.5
20260903183017 100 157 0.0 0.0 0.00 0.00 0.00 52 1019.5
20260903182516 99 158 0.0 0.0 0.00 0.00 0.00 54 1019.6
20260903182013 95 142 0.0 1.0 0.00 0.00 0.00 55 1019.8
20260903181511 94 146 0.0 1.0 0.00 0.00 0.00 58 1019.8
20260903181011 94 141 0.0 0.0 0.00 0.00 0.00 60 1019.8
20260903180507 93 131 1.0 2.0 0.00 0.00 0.00 60 1019.8
20260903180005 93 148 1.0 1.0 0.00 0.00 0.00 57 1020.1
20260903175505 92 125 1.0 1.0 0.00 0.00 0.00 62 1020.0
20260903175004 92 122 1.0 2.0 0.00 0.00 0.00 65 1020.2
20260903174459 91 109 2.0 2.0 0.00 0.00 0.00 67 1020.0
20260903173954 91 107 2.0 3.0 0.00 0.00 0.00 68 1020.1
20260903173449 91 115 1.0 2.0 0.00 0.00 0.00 68 1020.2
20260903172945 91 119 1.0 2.0 0.00 0.00 0.00 67 1020.0
20260903172440 91 117 1.0 1.0 0.00 0.00 0.00 67 1020.1
20260903171935 91 116 1.0 1.0 0.00 0.00 0.00 70 1020.4
20260903171430 90 119 1.0 2.0 0.00 0.00 0.00 68 1020.5
20260903170930 90 101 2.0 2.0 0.00 0.00 0.00 70 1020.5
20260903170425 90 110 2.0 2.0 0.00 0.00 0.00 68 1020.6
20260903165924 90 113 1.0 2.0 0.00 0.00 0.00 72 1020.7
20260903165419 89 104 2.0 3.0 0.00 0.00 0.00 71 1021.0
20260903164918 89 103 2.0 3.0 0.00 0.00 0.00 72 1020.9
20260903164414 89 105 2.0 3.0 0.00 0.00 0.00 71 1020.9
20260903163913 89 115 2.0 2.0 0.00 0.00 0.00 70 1021.0
20260903163410 89 102 2.0 3.0 0.00 0.00 0.00 75 1021.1
20260903162906 88 107 2.0 2.0 0.00 0.00 0.00 72 1020.8
20260903162402 88 99 2.0 3.0 0.00 0.00 0.00 73 1021.1
20260903161857 88 115 2.0 3.0 0.00 0.00 0.00 74 1021.0
20260903161352 88 116 2.0 2.0 0.00 0.00 0.00 76 1021.2
20260903160848 87 116 2.0 3.0 0.00 0.00 0.00 73 1021.1
20260903160347 87 130 2.0 2.0 0.00 0.00 0.00 76 1020.9
20260903155845 87 125 2.0 2.0 0.00 0.00 0.00 74 1021.2
20260903155341 87 115 2.0 3.0 0.00 0.00 0.00 75 1021.1
20260903154836 87 123 2.0 2.0 0.00 0.00 0.00 75 1021.1
20260903154332 87 124 2.0 2.0 0.00 0.00 0.00 77 1021.1
20260903153827 87 132 2.0 3.0 0.00 0.00 0.00 76 1021.2
20260903153323 87 123 2.0 2.0 0.00 0.00 0.00 74 1021.2
20260903152819 87 121 1.0 2.0 0.00 0.00 0.00 74 1021.4
20260903152315 87 116 1.0 2.0 0.00 0.00 0.00 77 1021.2
20260903151810 87 124 0.0 1.0 0.00 0.00 0.00 77 1021.4
20260903151306 86 117 1.0 2.0 0.00 0.00 0.00 79 1021.1
20260903150805 85 113 2.0 2.0 0.00 0.00 0.00 78 1021.2
20260903150259 85 115 2.0 2.0 0.00 0.00 0.00 78 1021.2
20260903145755 85 107 1.0 2.0 0.00 0.00 0.00 79 1021.2
20260903145250 85 112 1.0 2.0 0.00 0.00 0.00 79 1021.3
20260903144748 85 114 2.0 2.0 0.00 0.00 0.00 80 1021.5
20260903144244 84 113 2.0 3.0 0.00 0.00 0.00 80 1021.4
20260903143740 84 110 2.0 2.0 0.00 0.00 0.00 80 1021.4
20260903143236 84 106 2.0 3.0 0.00 0.00 0.00 81 1021.4
20260903142732 84 112 2.0 3.0 0.00 0.00 0.00 82 1021.3
20260903142228 84 106 2.0 3.0 0.00 0.00 0.00 82 1021.4
20260903141723 83 104 2.0 3.0 0.00 0.00 0.00 82 1021.5
20260903141219 83 115 2.0 3.0 0.00 0.00 0.00 82 1021.4
20260903140714 83 98 3.0 3.0 0.00 0.00 0.00 82 1021.5
20260903140214 83 91 4.0 4.0 0.00 0.00 0.00 84 1021.7
20260903135710 83 107 3.0 4.0 0.00 0.00 0.00 87 1021.4
20260903135206 82 99 2.0 4.0 0.00 0.00 0.00 84 1021.2
20260903134704 82 104 3.0 4.0 0.00 0.00 0.00 86 1021.4
20260903134200 82 100 3.0 4.0 0.00 0.00 0.00 86 1021.7
20260903133658 82 107 3.0 4.0 0.00 0.00 0.00 88 1021.4
20260903133154 82 100 3.0 4.0 0.00 0.00 0.00 88 1021.5
20260903132654 82 109 3.0 3.0 0.00 0.00 0.00 85 1021.3
20260903132149 82 107 3.0 4.0 0.00 0.00 0.00 86 1021.6
20260903131644 82 105 2.0 4.0 0.00 0.00 0.00 86 1021.6
20260903131143 82 119 0.0 3.0 0.00 0.00 0.00 86 1021.5
20260903130638 82 94 1.0 4.0 0.00 0.00 0.00 85 1021.5
20260903130137 81 56 1.0 3.0 0.00 0.00 0.00 86 1021.5
20260903125635 81 93 2.0 3.0 0.00 0.00 0.00 86 1021.3
20260903125132 81 101 2.0 3.0 0.00 0.00 0.00 87 1021.4
20260903124631 81 86 2.0 3.0 0.00 0.00 0.00 87 1021.5
20260903124125 80 53 0.0 0.0 0.00 0.00 0.00 88 1021.6
20260903123626 79 76 0.0 1.0 0.00 0.00 0.00 89 1021.4
20260903123125 78 343 1.0 2.0 0.00 0.00 0.00 90 1021.6
20260903122624 78 345 1.0 2.0 0.00 0.00 0.00 92 1021.7
20260903122118 76 343 1.0 2.0 0.00 0.00 0.00 94 1021.6
20260903121617 76 0 1.0 2.0 0.00 0.00 0.00 94 1021.6
20260903121113 76 338 2.0 3.0 0.00 0.00 0.00 94 1021.5
20260903120612 75 332 1.0 2.0 0.00 0.00 0.00 95 1021.3
20260903120107 75 330 1.0 2.0 0.00 0.00 0.00 95 1021.3
20260903115605 75 338 1.0 2.0 0.00 0.00 0.00 96 1021.2
20260903115100 74 324 2.0 3.0 0.00 0.00 0.00 96 1021.3
20260903114555 74 335 2.0 2.0 0.00 0.00 0.00 96 1020.9
20260903114051 74 340 2.0 2.0 0.00 0.00 0.00 96 1021.1
20260903113547 74 341 2.0 2.0 0.00 0.00 0.00 96 1021.0
20260903113043 74 332 2.0 2.0 0.00 0.00 0.00 96 1020.8
20260903112538 74 343 1.0 3.0 0.00 0.00 0.00 96 1021.1
20260903112033 74 336 2.0 2.0 0.00 0.00 0.00 96 1020.8
20260903111532 74 331 2.0 2.0 0.00 0.00 0.00 96 1020.7
20260903111028 74 335 2.0 2.0 0.00 0.00 0.00 96 1020.8
20260903110524 74 348 2.0 2.0 0.00 0.00 0.00 96 1020.7
20260903110024 74 338 2.0 2.0 0.00 0.00 0.00 96 1020.6
20260903105519 74 324 2.0 2.0 0.00 0.00 0.00 96 1020.6
20260903105014 74 11 1.0 2.0 0.00 0.00 0.00 96 1020.6
20260903104513 74 348 2.0 2.0 0.00 0.00 0.00 96 1020.5
20260903104009 75 338 2.0 2.0 0.00 0.00 0.00 96 1020.6
20260903103505 74 339 2.0 2.0 0.00 0.00 0.00 96 1020.6
20260903103001 74 330 2.0 2.0 0.00 0.00 0.00 96 1020.6
20260903102456 74 334 2.0 2.0 0.00 0.00 0.00 96 1020.6
20260903101954 74 338 2.0 2.0 0.00 0.00 0.00 96 1020.5
20260903101449 74 342 2.0 2.0 0.00 0.00 0.00 96 1020.4
20260903100945 74 335 2.0 2.0 0.00 0.00 0.00 96 1020.3
20260903100440 75 329 2.0 2.0 0.00 0.00 0.00 96 1020.6
20260903095937 75 332 1.0 2.0 0.00 0.00 0.00 97 1020.5
20260903095432 75 342 2.0 2.0 0.00 0.00 0.00 97 1020.5
20260903094927 75 332 1.0 2.0 0.00 0.00 0.00 96 1020.3
20260903094426 75 328 1.0 2.0 0.00 0.00 0.00 96 1020.4
20260903093924 75 335 2.0 2.0 0.00 0.00 0.00 96 1020.6
20260903093424 75 336 2.0 3.0 0.00 0.00 0.00 96 1020.6
20260903092919 75 343 1.0 2.0 0.00 0.00 0.00 95 1020.3
20260903092414 75 336 2.0 2.0 0.00 0.00 0.00 95 1020.5
20260903091913 75 337 2.0 2.0 0.00 0.00 0.00 95 1020.5
20260903091411 75 338 2.0 2.0 0.00 0.00 0.00 94 1020.3
20260903090912 75 341 2.0 2.0 0.00 0.00 0.00 94 1020.5
20260903090407 75 328 2.0 2.0 0.00 0.00 0.00 94 1020.2
20260903085906 75 331 2.0 2.0 0.00 0.00 0.00 94 1020.4
20260903085404 75 332 2.0 2.0 0.00 0.00 0.00 94 1020.3
20260903084904 75 341 2.0 2.0 0.00 0.00 0.00 94 1020.3
20260903084403 76 347 1.0 2.0 0.00 0.00 0.00 94 1020.3
20260903083858 75 334 2.0 2.0 0.00 0.00 0.00 94 1020.2
20260903083354 75 329 2.0 3.0 0.00 0.00 0.00 93 1020.4
20260903082853 75 337 2.0 2.0 0.00 0.00 0.00 93 1020.4
20260903082348 75 342 2.0 2.0 0.00 0.00 0.00 93 1020.5
20260903081843 75 333 2.0 3.0 0.00 0.00 0.00 93 1020.3
20260903081338 76 330 2.0 2.0 0.00 0.00 0.00 93 1020.2
20260903080835 76 337 2.0 3.0 0.00 0.00 0.00 93 1020.1
20260903080332 76 330 2.0 2.0 0.00 0.00 0.00 93 1020.1
20260903075831 76 335 2.0 2.0 0.00 0.00 0.00 93 1020.2
20260903075326 76 336 2.0 2.0 0.00 0.00 0.00 93 1020.4
20260903074821 76 338 2.0 2.0 0.00 0.00 0.00 92 1020.2
20260903074321 76 334 2.0 2.0 0.00 0.00 0.00 93 1020.2
20260903073817 76 324 2.0 2.0 0.00 0.00 0.00 92 1020.1
20260903073312 76 347 2.0 2.0 0.00 0.00 0.00 92 1019.9
20260903072808 76 340 2.0 2.0 0.00 0.00 0.00 92 1020.2
20260903072306 76 335 2.0 2.0 0.00 0.00 0.00 92 1020.3
20260903071801 76 337 2.0 2.0 0.00 0.00 0.00 92 1020.1
20260903071256 76 346 2.0 2.0 0.00 0.00 0.00 92 1020.1
20260903070755 76 329 2.0 2.0 0.00 0.00 0.00 91 1020.1
20260903070251 76 343 2.0 3.0 0.00 0.00 0.00 91 1020.0
20260903065746 76 337 2.0 2.0 0.00 0.00 0.00 91 1020.0
20260903065246 76 341 2.0 2.0 0.00 0.00 0.00 91 1020.1
20260903064744 76 334 2.0 2.0 0.00 0.00 0.00 91 1019.9
20260903064240 76 341 2.0 2.0 0.00 0.00 0.00 91 1020.1
20260903063737 76 343 2.0 2.0 0.00 0.00 0.00 91 1020.2
20260903063231 77 335 2.0 3.0 0.00 0.00 0.00 91 1020.3
20260903062727 76 339 2.0 2.0 0.00 0.00 0.00 91 1020.2
20260903062226 77 341 2.0 2.0 0.00 0.00 0.00 91 1020.0
20260903061723 77 340 2.0 2.0 0.00 0.00 0.00 90 1020.1
20260903061221 77 341 1.0 2.0 0.00 0.00 0.00 90 1020.2
20260903060718 77 330 2.0 2.0 0.00 0.00 0.00 90 1020.3
20260903060217 77 342 2.0 2.0 0.00 0.00 0.00 90 1020.3
20260903055715 77 348 1.0 2.0 0.00 0.00 0.00 89 1020.3
20260903055214 77 336 2.0 2.0 0.00 0.00 0.00 89 1020.3
20260903054708 77 335 2.0 2.0 0.00 0.00 0.00 89 1020.3
20260903054204 77 342 2.0 2.0 0.00 0.00 0.00 89 1020.3
20260903053701 77 337 2.0 2.0 0.00 0.00 0.00 89 1020.3
20260903053155 77 338 2.0 2.0 0.00 0.00 0.00 88 1020.2
20260903052651 78 336 2.0 3.0 0.00 0.00 0.00 89 1020.2
20260903052147 77 327 2.0 2.0 0.00 0.00 0.00 88 1020.3
20260903051641 78 345 1.0 2.0 0.00 0.00 0.00 89 1020.4
20260903051137 78 352 1.0 2.0 0.00 0.00 0.00 88 1020.5
20260903050637 78 341 2.0 2.0 0.00 0.00 0.00 88 1020.3
20260903050126 78 341 2.0 3.0 0.00 0.00 0.00 88 1020.3
20260903045625 78 341 2.0 2.0 0.00 0.00 0.00 88 1020.3
20260903045122 78 336 2.0 3.0 0.00 0.00 0.00 88 1020.2
20260903044618 78 331 2.0 3.0 0.00 0.00 0.00 88 1020.4
20260903044113 78 336 2.0 2.0 0.00 0.00 0.00 88 1020.3
20260903043609 78 341 2.0 2.0 0.00 0.00 0.00 88 1020.3
20260903043109 78 337 2.0 3.0 0.00 0.00 0.00 87 1020.3
20260903042603 78 342 2.0 2.0 0.00 0.00 0.00 87 1020.4
20260903042059 78 358 2.0 2.0 0.00 0.00 0.00 87 1020.2
20260903041556 78 343 2.0 2.0 0.00 0.00 0.00 87 1020.2
20260903041055 78 333 2.0 2.0 0.00 0.00 0.00 87 1020.3
20260903040554 78 340 2.0 2.0 0.00 0.00 0.00 86 1020.3
20260903040051 78 335 2.0 2.0 0.00 0.00 0.00 86 1020.3
20260903035546 79 345 2.0 2.0 0.00 0.00 0.00 87 1020.4
20260903035042 79 343 2.0 3.0 0.00 0.00 0.00 86 1020.5
20260903034537 79 341 2.0 2.0 0.00 0.00 0.00 86 1020.4
20260903034032 79 341 2.0 2.0 0.00 0.00 0.00 86 1020.4
20260903033527 79 337 2.0 2.0 0.00 0.00 0.00 86 1020.3
20260903033022 79 342 1.0 3.0 0.00 0.00 0.00 86 1020.4
20260903032518 79 335 1.0 2.0 0.00 0.00 0.00 86 1020.4
20260903032013 79 324 2.0 2.0 0.00 0.00 0.00 85 1020.5
20260903031513 79 330 2.0 2.0 0.00 0.00 0.00 85 1020.5
20260903031008 79 341 2.0 2.0 0.00 0.00 0.00 85 1020.6
20260903030504 80 341 2.0 2.0 0.00 0.00 0.00 85 1020.4
20260903025959 80 339 2.0 2.0 0.00 0.00 0.00 84 1020.4
20260903025455 80 335 2.0 2.0 0.00 0.00 0.00 84 1020.5
20260903024950 80 338 2.0 2.0 0.00 0.00 0.00 84 1020.2
20260903024449 80 339 2.0 2.0 0.00 0.00 0.00 84 1020.3
20260903023944 80 334 2.0 2.0 0.00 0.00 0.00 83 1020.1
20260903023439 80 355 1.0 2.0 0.00 0.00 0.00 83 1020.2
20260903022935 80 336 2.0 2.0 0.00 0.00 0.00 83 1020.3
20260903022434 81 340 2.0 2.0 0.00 0.00 0.00 83 1020.2
20260903021932 80 346 2.0 3.0 0.00 0.00 0.00 82 1020.2
20260903021428 81 341 2.0 2.0 0.00 0.00 0.00 82 1020.2
20260903020922 81 338 1.0 3.0 0.00 0.00 0.00 82 1020.3
20260903020418 81 333 1.0 2.0 0.00 0.00 0.00 81 1020.2
20260903015912 81 340 2.0 2.0 0.00 0.00 0.00 80 1020.2
20260903015408 82 349 1.0 2.0 0.00 0.00 0.00 81 1020.2
20260903014903 82 345 2.0 2.0 0.00 0.00 0.00 80 1020.1
20260903014357 82 336 2.0 2.0 0.00 0.00 0.00 80 1020.3
20260903013853 82 343 2.0 2.0 0.00 0.00 0.00 80 1020.1
20260903013352 82 331 2.0 2.0 0.00 0.00 0.00 80 1020.0
20260903012851 82 341 2.0 2.0 0.00 0.00 0.00 80 1020.0
20260903012345 82 342 1.0 2.0 0.00 0.00 0.00 80 1020.0
20260903011844 82 332 1.0 2.0 0.00 0.00 0.00 79 1019.9
20260903011344 82 336 2.0 2.0 0.00 0.00 0.00 79 1019.7
20260903010839 83 343 2.0 2.0 0.00 0.00 0.00 78 1019.6
20260903010335 83 338 2.0 2.0 0.00 0.00 0.00 78 1019.5
20260903005833 83 340 2.0 2.0 0.00 0.00 0.00 77 1019.7
20260903005328 83 343 1.0 2.0 0.00 0.00 0.00 77 1019.6
20260903004824 83 347 2.0 3.0 0.00 0.00 0.00 77 1019.6
20260903004319 84 334 2.0 3.0 0.00 0.00 0.00 77 1019.5
20260903003815 84 337 2.0 2.0 0.00 0.00 0.00 76 1019.4
20260903003310 84 338 2.0 3.0 0.00 0.00 0.00 76 1019.5
20260903002809 84 336 2.0 2.0 0.00 0.00 0.00 75 1019.4
20260903002309 85 348 1.0 3.0 0.00 0.00 0.00 74 1019.5
20260903001804 85 339 2.0 2.0 0.00 0.00 0.00 75 1019.3
20260903001259 85 344 2.0 2.0 0.00 0.00 0.00 75 1019.3
20260903000754 86 346 1.0 2.0 0.00 0.00 0.00 75 1019.4
20260903000249 86 339 2.0 3.0 0.00 0.00 0.00 73 1019.3
20260902235747 86 341 2.0 2.0 0.00 0.00 0.00 73 1019.4
20260902235243 87 338 2.0 2.0 0.00 0.00 0.00 72 1019.3
20260902234742 87 341 2.0 2.0 0.00 0.00 0.00 72 1019.3
20260902234242 87 344 1.0 2.0 0.00 0.00 0.00 71 1019.3
20260902233742 88 344 1.0 2.0 0.00 0.00 0.00 71 1019.4
20260902233242 88 341 1.0 2.0 0.00 0.00 0.00 70 1019.4
20260902232740 89 339 1.0 2.0 0.00 0.00 0.00 69 1019.5
20260902232234 89 330 2.0 2.0 0.00 0.00 0.00 65 1019.3
20260902231728 90 337 1.0 2.0 0.00 0.00 0.00 62 1019.3
20260902231223 90 341 1.0 2.0 0.00 0.00 0.00 62 1019.2
20260902230718 91 336 2.0 2.0 0.00 0.00 0.00 61 1019.2
20260902230217 92 349 1.0 1.0 0.00 0.00 0.00 57 1019.4
20260902225713 94 348 1.0 1.0 0.00 0.00 0.00 55 1019.3
20260902225212 97 347 0.0 1.0 0.00 0.00 0.00 50 1019.3
20260902224711 98 152 0.0 1.0 0.00 0.00 0.00 51 1019.3
20260902224207 98 265 0.0 1.0 0.00 0.00 0.00 50 1019.4
20260902223703 98 342 0.0 1.0 0.00 0.00 0.00 50 1019.3
20260902223202 99 178 0.0 0.0 0.00 0.00 0.00 50 1019.6
20260902222701 98 331 0.0 1.0 0.00 0.00 0.00 52 1019.3
20260902222200 99 137 0.0 1.0 0.00 0.00 0.00 52 1019.5
20260902221655 99 212 0.0 0.0 0.00 0.00 0.00 50 1019.4
20260902221149 95 109 1.0 2.0 0.00 0.00 0.00 57 1019.6
20260902220645 96 136 1.0 1.0 0.00 0.00 0.00 54 1019.5
20260902220145 96 144 0.0 0.0 0.00 0.00 0.00 56 1019.6
20260902215641 95 113 1.0 1.0 0.00 0.00 0.00 61 1019.6
20260902215136 96 127 0.0 1.0 0.00 0.00 0.00 60 1019.6
20260902214631 96 112 1.0 1.0 0.00 0.00 0.00 56 1019.6
20260902214130 97 86 1.0 2.0 0.00 0.00 0.00 48 1019.5
20260902213625 99 123 1.0 1.0 0.00 0.00 0.00 54 1019.6
20260902213124 98 144 0.0 0.0 0.00 0.00 0.00 54 1019.6
20260902212620 97 154 0.0 1.0 0.00 0.00 0.00 48 1019.7
20260902212116 97 139 1.0 1.0 0.00 0.00 0.00 52 1019.7
20260902211612 96 113 1.0 2.0 0.00 0.00 0.00 51 1019.7
20260902211108 96 115 1.0 1.0 0.00 0.00 0.00 56 1019.5
20260902210607 96 119 1.0 2.0 0.00 0.00 0.00 55 1019.5
20260902210108 97 127 1.0 1.0 0.00 0.00 0.00 49 1019.8
20260902205606 100 150 0.0 0.0 0.00 0.00 0.00 48 1019.7
20260902205102 100 150 0.0 0.0 0.00 0.00 0.00 51 1019.8
20260902204557 99 135 0.0 0.0 0.00 0.00 0.00 49 1019.7
20260902204057 97 134 0.0 1.0 0.00 0.00 0.00 50 1019.9
20260902203553 96 120 1.0 1.0 0.00 0.00 0.00 54 1019.9
20260902203051 95 125 1.0 2.0 0.00 0.00 0.00 58 1019.9
20260902202548 97 142 0.0 1.0 0.00 0.00 0.00 50 1019.9
20260902202044 96 101 1.0 2.0 0.00 0.00 0.00 49 1020.0
20260902201539 96 110 1.0 1.0 0.00 0.00 0.00 52 1020.0
20260902201038 98 135 0.0 0.0 0.00 0.00 0.00 47 1020.2
20260902200534 96 122 1.0 1.0 0.00 0.00 0.00 48 1020.0
20260902200030 98 156 0.0 1.0 0.00 0.00 0.00 47 1020.2
20260902195526 95 156 1.0 2.0 0.00 0.00 0.00 53 1020.2
20260902195024 96 160 1.0 2.0 0.00 0.00 0.00 48 1020.4
20260902194524 96 136 0.0 1.0 0.00 0.00 0.00 54 1020.3
20260902194019 96 132 1.0 2.0 0.00 0.00 0.00 52 1020.3
20260902193515 95 121 1.0 2.0 0.00 0.00 0.00 57 1020.5
20260902193015 94 106 2.0 3.0 0.00 0.00 0.00 51 1020.7
20260902192513 95 142 0.0 1.0 0.00 0.00 0.00 54 1020.6
20260902192012 95 131 0.0 1.0 0.00 0.00 0.00 55 1020.9
20260902191508 94 144 1.0 1.0 0.00 0.00 0.00 55 1020.7
20260902191002 94 146 1.0 1.0 0.00 0.00 0.00 55 1020.8
20260902190458 93 125 1.0 1.0 0.00 0.00 0.00 55 1021.0
20260902185953 93 117 1.0 1.0 0.00 0.00 0.00 61 1021.0
20260902185449 93 116 2.0 3.0 0.00 0.00 0.00 55 1021.0
20260902184944 92 136 1.0 2.0 0.00 0.00 0.00 61 1021.1
20260902184439 92 137 2.0 2.0 0.00 0.00 0.00 60 1021.2